Simultaneous Nadir Overpasses (SNOs) Predictions

Prediction of SNOs between GOES-16 and AQUA Satellite Orbit:

Table of predicted SNOs for the next 14.0 days since TLE Epoch: 12/14/2024
Index Date Time (GOES-16) GOES-16 Lat,Lon AQUA Lat,Lon Distance(km) Time Diff (sec)
1 12/14/2024 07:28:21 -0.01, -75.19 0.09, -75.51 37.39 80
2 12/16/2024 07:06:56 0.00, -75.18 -0.94, -70.93 485.07 80
3 12/16/2024 19:26:37 -0.00, -75.19 -0.12, -75.68 56.11 80
4 12/18/2024 19:10:30 -0.01, -75.20 0.86, -71.08 467.82 80
5 12/19/2024 07:30:04 0.01, -75.20 0.11, -75.82 69.86 80
6 12/21/2024 07:08:36 0.00, -75.22 -0.88, -71.22 455.62 80
7 12/21/2024 19:28:17 -0.00, -75.23 -0.14, -75.98 85.02 80
8 12/23/2024 19:12:08 -0.00, -75.26 0.86, -71.38 442.08 80
9 12/24/2024 07:31:40 0.00, -75.27 0.19, -76.09 94.50 80
10 12/26/2024 07:10:10 -0.00, -75.30 -0.82, -71.49 433.34 80
11 12/26/2024 19:29:50 0.00, -75.30 -0.22, -76.24 107.08 80
